Location: Asheville, NC
(35.6000°N, 82.5500°W)
Time: 09:25:25

N. Korean satellite - Pass Details

Date: 10 March 2018
Orbit: 460 x 512 km, 97.2° (Epoch: 19 March)

Event Time Altitude Azimuth Distance (km) Brightness Sun altitude
Rises 06:08:15 0° 33° (NNE) 2,626 10.8 -8.9°
Reaches altitude 10° 06:11:08 10° 58° (ENE) 1,734 10.4 -8.3°
Maximum altitude 06:13:18 15° 93° (E) 1,454 10.5 -7.9°
Drops below altitude 10° 06:15:27 10° 129° (SE) 1,723 10.2 -7.4°
Sets 06:18:17 0° 153° (SSE) 2,597 10.6 -6.9°
